[[{"header":{"parameterUnit":"m.s-1","parameterCategory":1,"la1":30.2991,"la2":30.254,"lo1":-89.0895,"lo2":-89.0444,"dy":0.0017,"dx":0.0017,"nx":28,"ny":28,"refTime":"2026-02-16T03:00:00:Z","depth":0,"parameterNumber":2,"parameterNumberName":"U-component_of_WINDS"},"data":[0,0,0,0,0,0,0,0,0,0,0,0,0,0,0,0,0,0,0,0,0,0,0,0,0,0,0,0,0,0,0,0,0,0,0,0,0,0,0,0,0,0,0,0,0,0,0,0,0,0,0,0,0,0,0,0,0,0,-0.9396,-0.9396,0,-0.9409,-0.941,-0.941,-0.9401,-0.9401,-0.94,-0.94,-0.9414,-0.9415,-0.9416,0,0,0,0,0,0,0,0,0,0,0,0,0,-0.9363,-0.9363,-0.9396,-0.9396,-0.9396,-0.9409,-0.941,-0.941,-0.9401,-0.9401,-0.94,-0.94,-0.9414,-0.9415,-0.9416,0,0,0,0,0,0,0,0,0,0,0,0,0,-0.9377,-0.9364,-0.9396,-0.9394,-0.9393,-0.9409,-0.941,-0.941,-0.9401,-0.9401,-0.94,-0.94,-0.9414,-0.9415,-0.9416,-0.9435,0,0,-0.942,-0.942,0,0,0,0,0,0,0,0,-0.9376,-0.9378,-0.9394,-0.9394,-0.9394,-0.9403,-0.9403,-0.9418,-0.9402,-0.9398,-0.94,-0.9399,-0.9411,-0.9412,-0.9416,-0.9436,-0.9436,-0.942,-0.942,-0.9421,-0.9421,0,0,0,0,0,0,0,-0.9375,-0.9377,-0.9401,-0.9394,-0.9394,-0.9392,-0.9393,-0.9406,-0.9408,-0.9399,-0.9398,-0.94,-0.9411,-0.9415,-0.9417,-0.9437,-0.942,-0.9421,-0.9421,-0.9422,-0.9472,-0.9472,0,0,0,0,0,0,-0.9374,-0.9377,-0.9401,-0.9402,-0.9383,-0.9393,-0.9394,-0.9401,-0.9408,-0.9408,-0.94,-0.9399,-0.9414,-0.9415,-0.9417,-0.944,-0.9421,-0.9422,-0.9423,-0.9471,-0.9472,-0.9473,0,0,0,0,0,0,-0.9374,-0.9376,-0.94,-0.9389,-0.9392,-0.9394,-0.9401,-0.9401,-0.9405,-0.9409,-0.9409,-0.9404,-0.9413,-0.9415,-0.9431,-0.944,-0.9422,-0.9423,-0.947,-0.9471,-0.9472,-0.9485,0,0,0,0,0,0,-0.9373,-0.9376,-0.9384,-0.9389,-0.9392,-0.9414,-0.9402,-0.9402,-0.9407,-0.9406,-0.9413,-0.9413,-0.9413,-0.9429,-0.9432,-0.9441,-0.9424,-0.9469,-0.9471,-0.9472,-0.9484,-0.9486,-0.9488,0,0,0,0,0,-0.9371,-0.9387,-0.9384,-0.9387,-0.9402,-0.9414,-0.9416,-0.9415,-0.9408,-0.9415,-0.9418,-0.9413,-0.9438,-0.943,-0.9434,-0.9444,-0.9469,-0.947,-0.9472,-0.9483,-0.9486,-0.9488,0,0,0,0,0,0,-0.9383,-0.9387,-0.9384,-0.9402,-0.9408,-0.9413,-0.9422,-0.9418,-0.9426,-0.9425,-0.9423,-0.9425,-0.9441,-0.9444,-0.9435,-0.9462,-0.9453,-0.9455,-0.946,-0.9463,-0.9465,-0.9464,-0.9425,0,0,0,0,0,-0.9387,-0.9397,-0.94,-0.9415,-0.9418,-0.942,-0.9425,-0.9424,-0.943,-0.9432,-0.9435,-0.9441,-0.945,-0.9457,-0.9465,-0.9484,-0.9485,-0.9492,-0.9494,-0.9496,-0.9498,-0.9508,-0.9511,-0.9477,-0.9477,-0.9477,0,0,-0.9396,-0.94,-0.9406,-0.9418,-0.9422,-0.9432,-0.9422,-0.9433,-0.944,-0.9434,-0.9448,-0.9451,-0.9457,-0.9474,-0.9481,-0.9477,-0.9508,-0.9498,-0.95,-0.9501,-0.951,-0.9513,-0.9516,-0.9478,-0.9478,-0.9478,0,0,-0.9418,-0.9422,-0.9435,-0.944,-0.9446,-0.9447,-0.945,-0.9455,-0.9456,-0.9471,-0.9466,-0.9475,-0.9491,-0.9495,-0.95,-0.9523,-0.9519,-0.9526,-0.9538,-0.9548,-0.955,-0.9553,-0.9561,-0.9564,-0.9528,-0.9528,-0.9528,0,-0.9429,-0.9444,-0.9442,-0.9454,-0.9459,-0.9453,-0.9466,-0.947,-0.9479,-0.9483,-0.9477,-0.9497,-0.9501,-0.9519,-0.9524,-0.9528,-0.9531,-0.9525,-0.955,-0.9553,-0.9555,-0.9563,-0.9566,-0.9529,-0.9528,-0.9528,-0.9528,0,-0.9457,-0.9468,-0.9477,-0.9486,-0.9492,-0.9504,-0.9504,-0.951,-0.9508,-0.9509,-0.9524,-0.9528,-0.9538,-0.9542,-0.954,-0.9559,-0.9556,-0.955,-0.9541,-0.9559,-0.9566,-0.9569,-0.953,-0.9529,-0.9529,-0.9529,0,0,-0.9488,-0.9494,-0.9498,-0.9502,-0.9508,-0.9516,-0.9528,-0.9536,-0.9542,-0.9548,-0.9558,-0.9571,-0.9566,-0.9571,-0.957,-0.9578,-0.9596,-0.9571,-0.9571,-0.9576,-0.9617,-0.9621,-0.9625,-0.9593,-0.9594,-0.9594,-0.9616,0,-0.951,-0.9531,-0.9529,-0.9548,-0.9558,-0.9552,-0.9562,-0.9567,-0.9568,-0.9576,-0.9578,-0.9587,-0.9579,-0.9582,-0.959,-0.9592,-0.9604,-0.959,-0.9602,-0.9603,-0.9601,-0.9629,-0.9633,-0.9654,-0.9619,-0.962,-0.962,0,-0.954,-0.9547,-0.9567,-0.9571,-0.9575,-0.9584,-0.9592,-0.96,-0.9605,-0.9605,-0.9611,-0.9608,-0.9619,-0.9609,-0.9625,-0.9616,-0.962,-0.9622,-0.9623,-0.9624,-0.9613,-0.9631,-0.9661,-0.9664,-0.9625,-0.9624,-0.9624,0,-0.956,-0.9574,-0.9588,-0.9591,-0.9597,-0.9603,-0.9606,-0.9611,-0.9616,-0.9623,-0.9626,-0.9634,-0.9638,-0.9645,-0.9644,-0.9637,-0.966,-0.965,-0.9661,-0.9661,-0.9666,-0.9666,-0.9698,-0.9669,-0.9669,-0.9669,-0.9669,0,-0.9586,-0.9598,-0.9597,-0.9606,-0.9619,-0.9617,-0.9631,-0.9633,-0.9637,-0.9646,-0.9641,-0.9649,-0.9647,-0.9656,-0.9655,-0.9668,-0.967,-0.9671,-0.9671,-0.9671,-0.9671,-0.9675,-0.9673,-0.967,-0.9669,-0.9669,-0.9669,0,-0.9611,-0.961,-0.9625,-0.9629,-0.963,-0.964,-0.9643,-0.9651,-0.9652,-0.9663,-0.9665,-0.9666,-0.9675,-0.9675,-0.9686,-0.9685,-0.9702,-0.97,-0.97,-0.97,-0.971,-0.9709,-0.9746,-0.975,-0.9718,-0.9718,-0.9719,0,-0.9627,-0.9637,-0.9641,-0.9647,-0.965,-0.9659,-0.9664,-0.9662,-0.9667,-0.9674,-0.9681,-0.969,-0.9697,-0.9712,-0.9714,-0.9722,-0.972,-0.9732,-0.9721,-0.9721,-0.972,-0.972,-0.972,-0.9734,-0.9734,-0.9735,-0.9735,0,-0.9657,-0.9656,-0.9664,-0.9671,-0.9678,-0.9683,-0.9689,-0.9694,-0.9692,-0.9699,-0.9708,-0.9713,-0.9724,-0.9733,-0.974,-0.9743,-0.9739,-0.9738,-0.9741,-0.9742,-0.9742,-0.9742,-0.9706,-0.9738,-0.9737,-0.9737,-0.9737,-0.9737,-0.9678,-0.9686,-0.9691,-0.9699,-0.9703,-0.9708,-0.9716,-0.9717,-0.9725,-0.9733,-0.9731,-0.9742,-0.9746,-0.9756,-0.9759,-0.9767,-0.9763,-0.9767,-0.9768,-0.9769,-0.9771,-0.9741,-0.9768,-0.9768,-0.9768,-0.9768,-0.9768,0,-0.9708,-0.971,-0.9718,-0.9725,-0.9732,-0.9727,-0.9733,-0.9739,-0.9748,-0.9752,-0.9759,-0.977,-0.9778,-0.978,-0.9788,-0.9794,-0.9792,-0.9796,-0.9796,-0.9796,-0.9774,-0.9771,-0.9797,-0.9797,-0.9797,-0.9797,-0.9797,-0.9797,-0.9724,-0.9737,-0.9737,-0.9752,-0.9754,-0.9764,-0.9768,-0.9772,-0.9776,-0.9788,-0.9794,-0.9795,-0.9799,-0.9807,-0.9814,-0.9814,-0.9817,-0.9822,-0.9822,-0.9801,-0.9798,-0.9795,-0.9792,-0.9823,-0.9823,-0.9844,-0.9844,-0.9844]},{"header":{"parameterUnit":"m.s-1","parameterCategory":1,"la1":30.2991,"la2":30.254,"lo1":-89.0895,"lo2":-89.0444,"dy":0.0017,"dx":0.0017,"nx":28,"ny":28,"refTime":"2026-02-16T03:00:00:Z","depth":0,"parameterNumber":3,"parameterNumberName":"V-component_of_WINDS"},"data":[0,0,0,0,0,0,0,0,0,0,0,0,0,0,0,0,0,0,0,0,0,0,0,0,0,0,0,0,0,0,0,0,0,0,0,0,0,0,0,0,0,0,0,0,0,0,0,0,0,0,0,0,0,0,0,0,0,0,-3.5725,-3.5725,0,-3.5748,-3.5748,-3.5748,-3.5715,-3.5714,-3.5713,-3.5712,-3.5732,-3.5733,-3.5735,0,0,0,0,0,0,0,0,0,0,0,0,0,-3.5649,-3.5651,-3.5725,-3.5725,-3.5725,-3.5747,-3.5748,-3.5748,-3.5715,-3.5714,-3.5713,-3.5711,-3.5731,-3.5733,-3.5735,0,0,0,0,0,0,0,0,0,0,0,0,0,-3.5678,-3.5651,-3.5725,-3.5712,-3.5711,-3.5747,-3.5748,-3.5748,-3.5716,-3.5714,-3.5712,-3.5711,-3.573,-3.5733,-3.5735,-3.5784,0,0,-3.5742,-3.5743,0,0,0,0,0,0,0,0,-3.5676,-3.5681,-3.5713,-3.5713,-3.5712,-3.5727,-3.5728,-3.576,-3.5716,-3.5714,-3.5712,-3.571,-3.5731,-3.5733,-3.5741,-3.5785,-3.5786,-3.5743,-3.5744,-3.5745,-3.5746,0,0,0,0,0,0,0,-3.5675,-3.568,-3.5734,-3.5714,-3.5713,-3.5704,-3.5706,-3.5734,-3.5732,-3.5714,-3.5711,-3.5715,-3.573,-3.5739,-3.5742,-3.5786,-3.5743,-3.5745,-3.5746,-3.5747,-3.5873,-3.5874,0,0,0,0,0,0,-3.5675,-3.5678,-3.5733,-3.5734,-3.569,-3.5706,-3.5709,-3.5724,-3.5731,-3.5731,-3.5716,-3.5713,-3.5736,-3.5739,-3.5742,-3.5801,-3.5745,-3.5747,-3.5749,-3.5871,-3.5873,-3.5875,0,0,0,0,0,0,-3.5673,-3.568,-3.5732,-3.5706,-3.5712,-3.571,-3.5726,-3.5725,-3.5734,-3.5733,-3.5732,-3.5726,-3.5735,-3.5739,-3.5775,-3.5801,-3.5748,-3.5751,-3.5868,-3.5871,-3.5874,-3.5919,0,0,0,0,0,0,-3.5671,-3.5679,-3.5699,-3.5706,-3.5713,-3.5765,-3.5728,-3.5727,-3.5738,-3.5735,-3.5742,-3.5742,-3.5734,-3.5771,-3.5777,-3.5804,-3.5752,-3.5866,-3.587,-3.5873,-3.5915,-3.5923,-3.593,0,0,0,0,0,-3.5669,-3.571,-3.57,-3.5707,-3.5738,-3.5767,-3.577,-3.5761,-3.5741,-3.576,-3.576,-3.5741,-3.5797,-3.5775,-3.5781,-3.5809,-3.5864,-3.5869,-3.5873,-3.5912,-3.5921,-3.593,0,0,0,0,0,0,-3.5704,-3.5711,-3.57,-3.5745,-3.5756,-3.5761,-3.5785,-3.5772,-3.5788,-3.5783,-3.577,-3.5772,-3.5811,-3.5813,-3.5788,-3.5857,-3.5827,-3.5833,-3.5855,-3.5864,-3.5871,-3.587,-3.5754,0,0,0,0,0,-3.5717,-3.5742,-3.5745,-3.5785,-3.5791,-3.5787,-3.5799,-3.5792,-3.5802,-3.5806,-3.5808,-3.5818,-3.5837,-3.585,-3.5868,-3.5915,-3.5916,-3.5937,-3.5944,-3.595,-3.5956,-3.5981,-3.5991,-3.5889,-3.5889,-3.5889,0,0,-3.5745,-3.5751,-3.5767,-3.5792,-3.58,-3.5824,-3.5791,-3.5818,-3.5836,-3.5809,-3.5844,-3.5846,-3.5856,-3.5897,-3.5916,-3.5901,-3.5984,-3.5956,-3.5961,-3.5963,-3.5986,-3.5996,-3.6005,-3.5892,-3.5891,-3.5891,0,0,-3.5807,-3.5815,-3.5849,-3.5857,-3.587,-3.5867,-3.5875,-3.5883,-3.5884,-3.5918,-3.5899,-3.5919,-3.5953,-3.5961,-3.597,-3.6036,-3.602,-3.6042,-3.6081,-3.6106,-3.6114,-3.6121,-3.6145,-3.6154,-3.6047,-3.6047,-3.6047,0,-3.584,-3.5877,-3.5868,-3.5897,-3.5909,-3.5887,-3.5921,-3.5929,-3.5946,-3.5954,-3.5937,-3.598,-3.5985,-3.6028,-3.6045,-3.6052,-3.6061,-3.6042,-3.6113,-3.612,-3.6127,-3.615,-3.6159,-3.605,-3.605,-3.6049,-3.6049,0,-3.5916,-3.5943,-3.5969,-3.5988,-3.6002,-3.6033,-3.6027,-3.6043,-3.6034,-3.6033,-3.6068,-3.6073,-3.6092,-3.6102,-3.6092,-3.6144,-3.6135,-3.6116,-3.6085,-3.6139,-3.6161,-3.617,-3.6054,-3.6053,-3.6052,-3.6051,0,0,-3.6002,-3.6016,-3.6026,-3.6035,-3.6047,-3.6066,-3.6096,-3.6116,-3.613,-3.6142,-3.6167,-3.6196,-3.6179,-3.6189,-3.618,-3.6202,-3.6255,-3.618,-3.618,-3.6195,-3.6313,-3.6328,-3.6339,-3.6244,-3.6246,-3.6247,-3.6313,0,-3.6066,-3.612,-3.6112,-3.6164,-3.6188,-3.6168,-3.6194,-3.6203,-3.6203,-3.6223,-3.6221,-3.6243,-3.6218,-3.6224,-3.6245,-3.6244,-3.6279,-3.6239,-3.6267,-3.6268,-3.6266,-3.635,-3.6365,-3.6427,-3.6321,-3.6322,-3.6323,0,-3.6147,-3.6164,-3.6219,-3.6228,-3.6238,-3.6262,-3.628,-3.6299,-3.6309,-3.6307,-3.6319,-3.6306,-3.6335,-3.6304,-3.6344,-3.6317,-3.6328,-3.6329,-3.6331,-3.6334,-3.63,-3.6355,-3.6446,-3.6456,-3.6336,-3.6335,-3.6334,0,-3.6206,-3.6242,-3.628,-3.6287,-3.6299,-3.6316,-3.6321,-3.633,-3.6343,-3.6358,-3.6366,-3.6383,-3.6393,-3.6407,-3.64,-3.6377,-3.6441,-3.6409,-3.644,-3.6441,-3.6455,-3.6455,-3.655,-3.6461,-3.6461,-3.646,-3.646,0,-3.6278,-3.6312,-3.6306,-3.633,-3.6367,-3.6357,-3.6395,-3.6397,-3.6405,-3.6428,-3.641,-3.6431,-3.6419,-3.644,-3.6433,-3.6468,-3.6472,-3.6471,-3.6469,-3.6474,-3.6474,-3.6481,-3.6477,-3.6463,-3.6462,-3.6462,-3.6461,0,-3.635,-3.6347,-3.6387,-3.6395,-3.6398,-3.6425,-3.6431,-3.6452,-3.6451,-3.648,-3.6486,-3.6483,-3.6506,-3.6499,-3.6524,-3.652,-3.6564,-3.6556,-3.6561,-3.6559,-3.6591,-3.6589,-3.6695,-3.6709,-3.661,-3.6611,-3.6612,0,-3.6397,-3.6423,-3.6434,-3.6449,-3.6456,-3.6479,-3.6493,-3.6484,-3.6498,-3.6512,-3.6532,-3.6554,-3.6571,-3.6608,-3.6607,-3.6626,-3.6619,-3.6655,-3.6621,-3.6625,-3.662,-3.6619,-3.6622,-3.6662,-3.6663,-3.6664,-3.6664,0,-3.648,-3.6478,-3.6499,-3.652,-3.6536,-3.6552,-3.6565,-3.6578,-3.657,-3.6587,-3.6611,-3.6624,-3.665,-3.6671,-3.6688,-3.6692,-3.6677,-3.6675,-3.6683,-3.6688,-3.6691,-3.6691,-3.658,-3.6673,-3.6672,-3.6671,-3.6671,-3.6671,-3.6542,-3.6565,-3.6576,-3.66,-3.661,-3.6623,-3.6644,-3.6645,-3.6666,-3.6687,-3.668,-3.6707,-3.6717,-3.6738,-3.6745,-3.6765,-3.6752,-3.6764,-3.6767,-3.677,-3.6775,-3.6687,-3.6768,-3.6768,-3.6768,-3.6768,-3.6767,0,-3.6625,-3.6632,-3.6654,-3.6675,-3.6693,-3.6678,-3.6693,-3.6709,-3.6734,-3.6745,-3.6762,-3.679,-3.6811,-3.6812,-3.6832,-3.6848,-3.6842,-3.6854,-3.6853,-3.6854,-3.6786,-3.6777,-3.6859,-3.6859,-3.6859,-3.6859,-3.6859,-3.6859,-3.6671,-3.6709,-3.6708,-3.6751,-3.6756,-3.6785,-3.6794,-3.6806,-3.6815,-3.6847,-3.6865,-3.6866,-3.6873,-3.6893,-3.6912,-3.6911,-3.692,-3.6935,-3.6932,-3.6868,-3.6859,-3.685,-3.6842,-3.6936,-3.6936,-3.6999,-3.6999,-3.7]}]]